COSMOS 2251 DEB, 36047

Orbit data source: Space-Track

COSMOS 2251 DEB, 36047 is space debris in LEO originally from a launch on Wed, 16 Jun 1993 UTC launched from the Plesetsk Missile And Space Complex (PKMTR). The debris from Iridium 33, an American commercial communications satellite, has been tracked extensively since its accidental collision with the defunct Russian satellite Cosmos 2251 in 2009. This event, occurring at high speed in low Earth orbit (LEO), generated thousands of pieces of space debris, significantly increasing the risk of further collisions. The Iridium 33 debris cloud has impacted space traffic management and orbital debris mitigation strategies, making it a subject of ongoing study in space situational awareness.

Loading next visibility...
Identifier
36047, 1993-036AXJ
Orbit
LEO
Country
Flag of CISCIS
Related business
Manufacturer
Unknown
Mission
Spacecraft
Bus & Motor
Unknown
Mass
Unknown
Launch date (UTC)
1993-06-16 (33 years ago)
Launch vehicle
Unknown
Launch site
Plesetsk Missile And Space Complex (PKMTR)
Object type
Payload
Rocket body
Debris
Shape & HBR
Unknown shape, 0.1 m
Radar Cross Section
Small (<0.1 m²)

Expand to show TLE details & history
Last TLE update: 1 day ago

TLE from 1 day ago
0 COSMOS 2251 DEB
1 36047U 93036AXJ 26033.21803688  .00033369  00000-0  26844-2 0  9991
2 36047  74.0315 229.8790 0006238 264.6371  95.4104 14.99819344667102
Epoch: 2026-02-02T05:13Z
TLE epoch observation values (Epoch: 2026-02-02T05:13:58.386Z)
Latitude
-0.00003°
Longitude
18.96923°
Altitude
570.553 km
Speed
7.576 km/s
True Right ascension
15h 19m 30s
True Declination
0° 00' 00"
Sunlit
Object was in daylight at epoch
Visualization orbit readout
Latitude
Unknown
Longitude
Unknown
Altitude
Unknown
Speed
Unknown
Apparent Right ascension
Unknown
Apparent Declination
Unknown
Sunlit
N/A
Visualization observer readout
Local Sidereal Time
07:18:54
Azimuth
Unknown
Elevation
Unknown
Doppler factor
Unknown
Orbital elements
Apogee altitude
569.339 km
Perigee altitude
560.677 km
Semi-major axis
6,943.145 km
Eccentricity
0.00062
Inclination
74.0315°
RAAN
229.879°
Arg. of periapsis
264.6371°
True anomaly
95.48156°
Mean anomaly
95.4104°
Eccentric anomaly
95.44598°
Mean motion
3.75153 °/min
Orbital period
95.96 mins
BSTAR
0.0026844
Loading maneuver chart data...
Computing Atmospheric mass density...

Documentation

Showing up to 5 results
|